Overview Statistics Trail Chart Weather Telemetry Raw packets
 

This is the latest recevied weather packets stored in our database for station/object OK2KJT-11. If no packets are shown the sender has not sent any weather packets the latest 10 day(s).

<< 16 17 18 19 20 21 22 >>
Time Temp. Humidity Pressure Rain* Wind** Luminosity Snow
1788464948 15.56° C 64% 1020.9 hPa - - - -
1788464348 15.56° C 65% 1020.9 hPa - - - -
1788463748 15.56° C 65% 1020.9 hPa - - - -
1788463148 15.56° C 64% 1020.9 hPa - - - -
1788462548 15.56° C 64% 1020.8 hPa - - - -
1788461949 15.56° C 64% 1020.7 hPa - - - -
1788461349 15.56° C 66% 1020.8 hPa - - - -
1788460749 15.56° C 65% 1020.9 hPa - - - -
1788460150 15.56° C 66% 1020.9 hPa - - - -
1788458950 15.56° C 65% 1020.7 hPa - - - -
1788458349 16.11° C 64% 1020.6 hPa - - - -
1788457750 16.11° C 62% 1020.6 hPa - - - -
1788457150 16.67° C 61% 1020.6 hPa - - - -
1788456550 16.67° C 61% 1020.5 hPa - - - -
1788455950 16.67° C 60% 1020.3 hPa - - - -
1788455350 16.67° C 60% 1020.5 hPa - - - -
1788454751 17.22° C 60% 1020.6 hPa - - - -
1788454151 17.22° C 59% 1020.7 hPa - - - -
1788453551 17.78° C 58% 1020.6 hPa - - - -
1788452952 17.78° C 57% 1020.6 hPa - - - -
1788452352 18.33° C 56% 1020.5 hPa - - - -
1788451752 19.44° C 54% 1020.5 hPa - - - -
1788451152 20° C 52% 1020.6 hPa - - - -
1788448753 20° C 54% 1020.7 hPa - - - -
1788448153 19.44° C 54% 1020.7 hPa - - - -

* Rain since midnight (hover to see other rain measurements)
** Current wind speed in m/s (hover to see current wind gust speed)